sat.trackr.live / text

‹ back to catalog

STARLINK-35132

NORAD 66461 · 2025-262F

PAYLOAD ACTIVE UNKNOWN

§ Identity

Operator
Country
US
Launch date
2025-11-15
Launch site
AFETR
Launch vehicle
Mass (kg)
RCS (m²)

Purposes: comms

External: N2YO · Heavens-Above · Gunter

§ Orbital elements

Epoch: 2026-05-24T16:52:16.839552Z

Period
94.27 min
Inclination
42.9990°
Eccentricity
0.0001821
Mean motion
15.27592350 rev/d
Perigee alt
481.8 km
Apogee alt
484.3 km
Semi-major
6,861.1 km
B*
6.8599e-4
RAAN
226.7176°
Arg perigee
275.7814°
Mean anomaly
84.2830°
Rev number
3,053

§ Raw data

STARLINK-351321 66461U 25262F   26144.70297268  .00018670  00000+0  68599-3 0  99992 66461  42.9990 226.7176 0001821 275.7814  84.2830 15.27592350 30530

JSON: /api/v1/satellites/66461 · /tle

For live sub-satellite position, see the globe view (requires WebGL).

§ Visibility from observer

Set your observer location to see the next 7 days of passes ≥ 10°. The values pass through the URL so the page stays shareable.

No JS? Fill the form by hand. The geolocation button needs JavaScript.